This is the latest recevied weather packets stored in our database for station/object SR8WXL-13. If no packets are shown the sender has not sent any weather packets the latest 10 day(s).
| Time | Temp. | Humidity | Pressure | Rain* | Wind** | Luminosity | Snow |
|---|---|---|---|---|---|---|---|
| 1787685625 | 15° C | 82% | 1033.4 hPa | 0 mm | - | - | - |
| 1787684756 | 15° C | 80% | 1033.4 hPa | 0 mm | - | - | - |
| 1787683999 | 15° C | 82% | 1033.3 hPa | 0 mm | - | - | - |
| 1787683193 | 15° C | 81% | 1033.4 hPa | 0 mm | - | - | - |
| 1787682329 | 15° C | 81% | 1033.4 hPa | 0 mm | - | - | - |
| 1787681443 | 15° C | 81% | 1033.2 hPa | 0 mm | - | - | - |
| 1787680719 | 16.11° C | 81% | 1033.1 hPa | 0 mm | - | - | - |
| 1787679848 | 16.11° C | 79% | 1032.7 hPa | 0 mm | - | - | - |
| 1787679007 | 17.22° C | 78% | 1032.8 hPa | 0 mm | - | - | - |
| 1787678124 | 17.22° C | 78% | 1032.7 hPa | 0 mm | - | - | - |
| 1787677312 | 17.22° C | 74% | 1032.6 hPa | 0 mm | - | - | - |
| 1787676457 | 17.22° C | 74% | 1032.6 hPa | 0 mm | - | - | - |
| 1787675719 | 17.78° C | 74% | 1032.4 hPa | 0 mm | - | - | - |
| 1787674871 | 17.78° C | 74% | 1032.4 hPa | 0 mm | - | - | - |
| 1787674049 | 17.78° C | 73% | 1032.5 hPa | 0 mm | - | - | - |
| 1787673199 | 17.78° C | 72% | 1032.5 hPa | 0 mm | - | - | - |
| 1787672410 | 17.78° C | 71% | 1032.7 hPa | 0 mm | - | - | - |
| 1787671539 | 17.78° C | 70% | 1032.6 hPa | 0 mm | - | - | - |
| 1787670741 | 18.89° C | 67% | 1032.6 hPa | 0 mm | - | - | - |
| 1787669955 | 20° C | 66% | 1032.4 hPa | 0 mm | - | - | - |
| 1787669201 | 18.89° C | 66% | 1032.6 hPa | 0 mm | - | - | - |
| 1787668465 | 18.89° C | 67% | 1032.8 hPa | 0 mm | - | - | - |
| 1787667621 | 18.89° C | 69% | 1032.8 hPa | 0 mm | - | - | - |
| 1787666854 | 17.78° C | 70% | 1032.8 hPa | 0 mm | - | - | - |
| 1787666015 | 17.78° C | 71% | 1033 hPa | 0 mm | - | - | - |
* Rain latest hour (hover to see other rain measurements)
** Current wind speed in m/s (hover to see current wind gust speed)